Regional Weather Roundup
Issued by NWS

Home | Current Version | Previous Version | Graphics & Text | Print | Product List | Glossary On
Versions: 1 2 3 4 5 6 7 8 9 10 11 12 13 14 15 16 17 18 19 20 21 22 23 24 25 26 27 28 29 30 31 32 33 34 35 36 37 38 39 40 41 42 43 44 45 46 47 48 49 50
000
ASUS43 KMKX 271821
RWRWI

WISCONSIN REGIONAL WEATHER ROUNDUP
NATIONAL WEATHER SERVICE MILWAUKEE/SULLIVAN WI
100 PM CDT SAT AUG 27 2016

NOTE: "FAIR" INDICATES FEW OR NO CLOUDS BELOW 12,000 FEET WITH NO
SIGNIFICANT WEATHER AND/OR OBSTRUCTIONS TO VISIBILITY.

WIZ001-002-006>008-014>016-023>028-271900-
NORTHWEST WISCONSIN

CITY           SKY/WX    TMP DP  RH WIND       PRES   REMARKS
SUPERIOR ARPT  PTSUNNY   64  59  85 E5        30.03F
6HR MIN TEMP:  54; 6HR MAX TEMP:  64; 6HR PCP:  0.05;

ASHLAND        CLOUDY    68  57  68 CALM      30.05F
6HR MIN TEMP:  50; 6HR MAX TEMP:  69;

HAYWARD        LGT RAIN  65  56  72 CALM      30.06F
6HR MIN TEMP:  54; 6HR MAX TEMP:  66; 6HR PCP:  0.01;

SIREN          LGT RAIN  63  60  91 CALM      30.04S
6HR MIN TEMP:  58; 6HR MAX TEMP:  64; 6HR PCP:  0.06;

CUMBERLAND     LGT RAIN  63  57  82 CALM      30.05F
RICE LAKE      CLOUDY    68  58  71 E6        30.05F
6HR MIN TEMP:  58; 6HR MAX TEMP:  69;

CHETEK         NOT AVBL
LADYSMITH      CLOUDY    69  57  65 SE6       30.07S
6HR MIN TEMP:  57; 6HR MAX TEMP:  71;

EAU CLAIRE     CLOUDY    67  58  72 SE10      30.03F
6HR MIN TEMP:  59; 6HR MAX TEMP:  69;

MENOMONIE      CLOUDY    67  59  76 E9        30.03F
6HR MIN TEMP:  60; 6HR MAX TEMP:  67;

NEW RICHMOND   CLOUDY    66  58  75 SE7       30.03F
6HR MIN TEMP:  59; 6HR MAX TEMP:  66; 6HR PCP:  0.03;

OSCEOLA        CLOUDY    66  66  99 E8        30.04F
6HR MIN TEMP:  60; 6HR MAX TEMP:  66;

$$

WIZ003>005-009-010-017-018-271900-
NORTH CENTRAL WISCONSIN

CITY           SKY/WX    TMP DP  RH WIND       PRES   REMARKS
MANITOWISH WTR NOT AVBL
ARBOR VITAE    PTSUNNY   71  58  62 SE7       30.08F
6HR MIN TEMP:  59; 6HR MAX TEMP:  72;

WOODRUFF       PTSUNNY   71  58  62 SE7       30.08F
6HR MIN TEMP:  59; 6HR MAX TEMP:  72;

RHINELANDER    CLOUDY    67  57  70 S6        30.09F
6HR MIN TEMP:  57; 6HR MAX TEMP:  68;

EAGLE RIVER    CLOUDY    66  54  65 S3        30.07F
6HR MIN TEMP:  54; 6HR MAX TEMP:  69;

LAND O LAKES   MOSUNNY   70  54  56 S6        30.09F
6HR MIN TEMP:  52; 6HR MAX TEMP:  71;

PHILLIPS       CLOUDY    68  58  69 SE6       30.05F
6HR MIN TEMP:  54; 6HR MAX TEMP:  68;

TOMAHAWK       CLOUDY    67  56  68 SE5       30.07F
6HR MIN TEMP:  55; 6HR MAX TEMP:  68;

MEDFORD        CLOUDY    66  59  77 SE8       30.06F
6HR MIN TEMP:  56; 6HR MAX TEMP:  68;

MERRILL        CLOUDY    67  59  74 SE10      30.08F
6HR MIN TEMP:  57; 6HR MAX TEMP:  69;

$$

WIZ029-030-035-036-043>047-271900-
CENTRAL WISCONSIN

CITY           SKY/WX    TMP DP  RH WIND       PRES   REMARKS
WAUSAU         CLOUDY    66  58  75 SE12      30.06F
6HR MIN TEMP:  58; 6HR MAX TEMP:  66;

MOSINEE        CLOUDY    63  61  94 E6        30.08F
MARSHFIELD     CLOUDY    66  56  70 E9        30.05F
6HR MIN TEMP:  59; 6HR MAX TEMP:  66;

STEVENS POINT  CLOUDY    62  58  87 E8        30.07F
6HR MIN TEMP:  58; 6HR MAX TEMP:  63;

WAUPACA        CLOUDY    67  64  87 NE5       30.06S
6HR MIN TEMP:  62; 6HR MAX TEMP:  68;

WAUTOMA        CLOUDY    65  61  87 E8        30.06S
6HR MIN TEMP:  60; 6HR MAX TEMP:  65; 6HR PCP: TRACE;

WISC RAPIDS    CLOUDY    67  61  81 E9        30.06F
6HR MIN TEMP:  60; 6HR MAX TEMP:  67; 6HR PCP:  0.01;

CAMP DOUGLAS   CLOUDY    64  63  94 E7        30.04F
                                      6HR PCP:  0.03;

$$

WIZ011>013-019>022-031-037>040-048>050-271900-
NORTHEAST WISCONSIN

CITY           SKY/WX    TMP DP  RH WIND       PRES   REMARKS
ANTIGO         CLOUDY    64  58  80 SE7       30.09F
6HR MIN TEMP:  57; 6HR MAX TEMP:  65;

SHAWANO        CLOUDY    66  61  82 E6        30.08F
6HR MIN TEMP:  62; 6HR MAX TEMP:  67; 6HR PCP:  0.02;

OCONTO         NOT AVBL
STURGEON BAY   CLOUDY    65  61  87 E8        30.08F
6HR MIN TEMP:  60; 6HR MAX TEMP:  66; 6HR PCP:  0.01;

GREEN BAY      CLOUDY    65  63  93 E7        30.06F
6HR MIN TEMP:  62; 6HR MAX TEMP:  65; 6HR PCP:  0.13;

MANITOWOC      CLOUDY    64  61  88 E5        30.07F
6HR MIN TEMP:  60; 6HR MAX TEMP:  64;

APPLETON       CLOUDY    64  61  88 E6        30.05F
CLINTONVILLE   CLOUDY    64  61  88 E5        30.07S
OSHKOSH        CLOUDY    64  61  90 E10       30.05F FOG
6HR MIN TEMP:  61; 6HR MAX TEMP:  64; 6HR PCP:  0.26;

$$

WIZ032>034-041-042-053>061-271900-
SOUTHWEST WISCONSIN

CITY           SKY/WX    TMP DP  RH WIND       PRES   REMARKS
LA CROSSE      CLOUDY    69  63  81 NE5       30.02F
6HR MIN TEMP:  64; 6HR MAX TEMP:  69;

SPARTA         CLOUDY    65  62  87 E5        30.05S
6HR MIN TEMP:  60; 6HR MAX TEMP:  65;

VIROQUA        CLOUDY    67  63  87 CALM      30.04R
6HR MIN TEMP:  60; 6HR MAX TEMP:  68; 6HR PCP:  0.11;

BOSCOBEL       CLOUDY    69  64  84 VRB5      30.02F
6HR MIN TEMP:  64; 6HR MAX TEMP:  70; 6HR PCP: TRACE;

PRAIRIE DU CHI CLOUDY    70  65  83 SE3       30.01S
6HR MIN TEMP:  62; 6HR MAX TEMP:  70; 6HR PCP:  0.03;

PLATTEVILLE    CLOUDY    71  70  98 CALM      30.03S
6HR MIN TEMP:  63; 6HR MAX TEMP:  71; 6HR PCP:  0.03;

$$

WIZ056-057-062-063-064-067-068-271900-
SOUTH CENTRAL WISCONSIN

CITY           SKY/WX    TMP DP  RH WIND       PRES   REMARKS
REEDSBURG      NOT AVBL
BARABOO/DELLS  CLOUDY    66  62  86 E7        30.03F
6HR MIN TEMP:  61; 6HR MAX TEMP:  66; 6HR PCP:  0.07;

LONE ROCK      CLOUDY    66  63  90 E8        30.03S
6HR MIN TEMP:  63; 6HR MAX TEMP:  66; 6HR PCP:  0.23;

MINERAL POINT  CLOUDY    68  68 100 E3        30.03S
MADISON        CLOUDY    67  64  90 E8        30.03S
6HR MIN TEMP:  61; 6HR MAX TEMP:  67; 6HR PCP:  0.01;

MIDDLETON      CLOUDY    68  68 100 E6        30.04F
6HR MIN TEMP:  62; 6HR MAX TEMP:  68; 6HR PCP:  0.05;

WATERTOWN      CLOUDY    67  67  98 E5        30.04S
6HR MIN TEMP:  61; 6HR MAX TEMP:  68; 6HR PCP:  0.15;

MONROE         CLOUDY    72  68  88 S6        30.03F
JANESVILLE     CLOUDY    77  70  78 VRB5      30.02S
$$

WIZ051-052-058>065-066-070>072-271900-
SOUTHEAST WISCONSIN

CITY           SKY/WX    TMP DP  RH WIND       PRES   REMARKS
MILWAUKEE      CLOUDY    73  67  81 CALM      30.04F
6HR MIN TEMP:  63; 6HR MAX TEMP:  73; 6HR PCP:  0.01;

WAUKESHA       CLOUDY    66  64  94 E5        30.06F
MILWAUKEE/TIMM CLOUDY    68  63  83 NE5       30.05F
RACINE         CLOUDY    72  69  90 S10       30.05F
6HR MIN TEMP:  68; 6HR MAX TEMP:  73; 6HR PCP:  0.04;

BURLINGTON     CLOUDY    70  67  90 CALM      30.04S
6HR MIN TEMP:  63; 6HR MAX TEMP:  70;

KENOSHA        CLOUDY    75  71  87 SE8       30.04F
6HR MIN TEMP:  68; 6HR MAX TEMP:  75; 6HR PCP:  0.02;

FOND DU LAC    CLOUDY    65  63  93 E7        30.05F
6HR MIN TEMP:  61; 6HR MAX TEMP:  65; 6HR PCP:  0.77;

SHEBOYGAN      CLOUDY    65  62  90 NE7       30.05F FOG
6HR MIN TEMP:  60; 6HR MAX TEMP:  64; 6HR PCP:  0.35;

WEST BEND      CLOUDY    64  63  94 E5        30.06R
JUNEAU         CLOUDY    65  62  92 E9        30.06S
6HR MIN TEMP:  60; 6HR MAX TEMP:  65; 6HR PCP:  0.33;

$$

LSZ147-162-271900-
LAKE SUPERIOR

STATION/POSITION TIME  TEMP    WIND        PRES    WAVE
                       AIR SEA DIR/SP/G            HT/PER
                 (UTC) (F)     (DEG/KT/KT) (MB)    (FT/S)
W MID LAKE BUOY  1750   66 67  130/  6/  6 1017.9F   1/ 3
DEVILS ISLAND    1800   65      40/  4/  4 1017.9F
PORT WING        1700   67      20/  4/  5 1017.9F
SAXON HARBOR     1740   71      90/  3/  7 1017.6F
$$

LMZ867-665-643>646-271900-
LAKE MICHIGAN

STATION/POSITION TIME  TEMP    WIND        PRES    WAVE
                       AIR SEA DIR/SP/G            HT/PER
                 (UTC) (F)     (DEG/KT/KT) (MB)    (FT/S)
CHAMBERS ISLAND  1700   64     100/  2/  7 1019.0
S GREEN BAY BUOY 1700   65 71  110/  8/ 12 1018.0
N MID LAKE BUOY  1750   66C1F1C2F2C3F3C4F4C5F5C6F6C7F7C8M1C9M2Ca!



USA.gov is the U.S. government's official web portal to all federal, state and local government web resources and services.